Powrót do katalogu

STARLINK-6089

AktywnyŁącznośćVLEO
NORAD 56096·PAYLOAD·🇺🇸 United States

Wystrzelony Mar 29, 2023 z Cape Canaveral Space Force Station

Loading…

Następne Przeloty (najbliższe 24 godziny)

TLE

ŚwieżeSource: CelesTrak SupGP

Epoka: Sep 14, 2026, 21:38 UTC

1 56096C 23046D   26257.90187500 -.00021672  00000+0 -78511-3 0  2574
2 56096  42.9994 172.8574 0001057 236.1362  15.2059 15.27584073    10

Śledź STARLINK-6089 w czasie rzeczywistym z AllMySat

Download on the App Store